Weather Roundup
Issued by NWS Springfield, MO

Home | Current Version | Previous Version | Text Only | Print | Product List | Glossary On
Versions: 1 2 3 4 5 6 7 8 9 10 11 12 13 14 15 16 17 18 19 20 21 22 23 24 25 26 27 28 29 30 31 32 33 34 35 36 37 38 39 40 41 42 43 44 45 46 47 48 49 50
000
NZUS99 KSGF 270607
HRRSGF

HOURLY WEATHER
NATIONAL WEATHER SERVICE SPRINGFIELD MO
100 AM CDT WED AUG 27 2014

......SGF CWA......

CITY           SKY/WX    TMP DP  RH WIND       PRES   REMARKS
SPRINGFIELD    FAIR      73  68  84 N3        30.10S
6HR MIN TEMP:  73; 6HR MAX TEMP:  83; 6HR PCP:  0.01;

JOPLIN         FAIR      75  68  78 E6        30.08S
6HR MIN TEMP:  74; 6HR MAX TEMP:  85; 6HR PCP:  0.01;

WEST PLAINS    FAIR      74  68  81 N3        30.13S
6HR MIN TEMP:  73; 6HR MAX TEMP:  90;

ROLLA          FAIR      72  66  81 CALM      30.11R
6HR MIN TEMP:  70; 6HR MAX TEMP:  79;

OSAGE BEACH    MOCLDY    70  66  88 CALM      30.11R
BRANSON        FAIR      73  68  83 CALM      30.12R

......SURROUNDING SGF CWA......

CITY           SKY/WX    TMP DP  RH WIND       PRES   REMARKS
CHANUTE        FAIR      76  66  71 S6        30.07S
PARSONS        FAIR      79  66  64 S3        30.07S
COFFEYVILLE    FAIR      80  67  64 CALM      30.06S
EMPORIA        FAIR      75  68  78 SE6       30.07S
GROVE OK       FAIR      75  75 100 CALM      30.08S
ROGERS AR      FAIR      76  66  71 E5        30.12R
SILOAM SPRINGS FAIR      73  64  73 SE3       30.10F
HARRISON AR    FAIR      75  72  90 SE3       30.11R
NEAR YELLVILLE FAIR      75  66  73 CALM      30.09S

......KANSAS AND MISSOURI......

CITY           SKY/WX    TMP DP  RH WIND       PRES   REMARKS
KANSAS CTY INT FAIR      77  71  82 E9        30.10R
DOWNTOWN KC    FAIR      79  72  79 E8        30.09R
COLUMBIA       FAIR      77  74  90 NE5       30.11R
SEDALIA        FAIR      74  70  87 SE5       30.10S
ST JOSEPH      FAIR      75  71  87 E7        30.10R
ST LOUIS       MOCLDY    75  68  78 E9        30.13F
SPIRIT OF STL  LGT RAIN  76  68  76 E8G17     30.10R
KIRKSVILLE     FAIR      71  67  87 E3        30.15R
WICHITA        MOCLDY    81  68  64 SE7       30.07S
TOPEKA         FAIR      79  75  87 E3        30.08R
OLATHE         FAIR      78  73  84 NE5       30.09S

......TENNESSEE......

CITY           SKY/WX    TMP DP  RH WIND       PRES   REMARKS
MEMPHIS        FAIR      81  67  62 CALM      30.06R
NASHVILLE      FAIR      73  70  90 CALM      30.08F

......ARKANSAS.......

CITY           SKY/WX    TMP DP  RH WIND       PRES   REMARKS
FAYETTEVILLE   FAIR      72  69  90 CALM      30.11R
FT SMITH       FAIR      79  72  79 NE5       30.06R
LITTLE ROCK    FAIR      81  73  76 CALM      30.05S

......OKLAHOMA.......

CITY           SKY/WX    TMP DP  RH WIND       PRES   REMARKS
TULSA          FAIR      84  67  56 S8        30.03F
PONCA CITY     FAIR      81  66  60 S7        30.05F
MCALESTER      FAIR      78  71  79 CALM      30.07S
OKLAHOMA CITY  FAIR      76  66  71 S6        30.08R

......IOWA............

CITY           SKY/WX    TMP DP  RH WIND       PRES   REMARKS
DES MOINES     MOCLDY    72  65  78 NE7       30.13S
QUAD CITIES    FAIR      69  65  86 CALM      30.13R

......ILLINOIS........

CITY           SKY/WX    TMP DP  RH WIND       PRES   REMARKS
QUINCY         FAIR      72  70  93 N5        30.11S
CHICAGO        MOCLDY    72  63  73 NE7       30.10F




USA.gov is the U.S. government's official web portal to all federal, state and local government web resources and services.